User: anonymous   Login
Location: Elk Horn Observatory
(36.6768°N, 80.8309°W)
Time: 13:19:26
(UTC-05:00)
Language:

ISS - Orbit

View from above orbital plane
View from above orbital plane
View from above satellite
View from above satellite

Ground track
Ground track

The orbit data is extracted from the following two-line orbital elements,

1 25544U 98067A   18346.98512045  .00016717  00000-0  10270-3 0  9036
2 25544  51.6379 207.6935 0005007 140.4439 219.7079 15.54064985 26316
Epoch (UTC): 12 December 2018 23:38:34
Eccentricity: 0.0005007
inclination: 51.6379°
perigee height: 401 km
apogee height: 408 km
right ascension of ascending node: 207.6935°
argument of perigee: 140.4439°
revolutions per day: 15.54064985
mean anomaly at epoch: 219.7079°
orbit number at epoch: 2631

The dashed part of the orbit path shows where the satellite is in the earth's shadow,  

DLR